Marion, IN

11:27 AM EST on November 18, 2017 (GMT -0500)
Marion Municipal

Weather History for KMZZ - April, 2013

Change the Weather History Date:

Tuesday, April 23, 2013

  Actual Average (KMIE) Record (KMIE)
Temperature  
Mean Temperature 56 °F -  
Max Temperature 65 °F 64 °F 84 °F (1985)
Min Temperature 46 °F 43 °F 20 °F (1986)
Degree Days  
Heating Degree Days 10    
Growing Degree Days 6 (Base 50)    
Moisture  
Dew Point 46 °F    
Average Humidity 71    
Maximum Humidity 94    
Minimum Humidity 50    
Precipitation  
Precipitation 0.76 in - - ()
Sea Level Pressure  
Sea Level Pressure 29.99 in    
Wind  
Wind Speed 8 mph (South)    
Max Wind Speed 22 mph    
Max Gust Speed 25 mph    
Visibility 8 miles    
Events Rain    
Averages and records for this station are not official NWS values.
T = Trace of Precipitation, MM = Missing Value Source: NWS Daily Summary

Daily Weather History Graph

Daily Weather History Graph

Search for Another Location

Airport or City:

Trip Planner

Search our weather history database for the weather conditions in past years. The results will help you decide how hot, cold, wet, or windy it might be!

Date:

Astronomy

Apr. 23, 2013 Rise Set
Actual Time 6:52 AM EDT 8:30 PM EDT
Civil Twilight 6:23 AM EDT 8:59 PM EDT
Nautical Twilight 5:48 AM EDT 9:34 PM EDT
Astronomical Twilight 5:11 AM EDT 10:11 PM EDT
Moon 6:24 PM EDT (4/23) 5:20 AM EDT (4/23)
Length of Visible Light 14h 36m
Length of Day
13h 38m
Waxing Gibbous, 94% of the Moon is Illuminated
Apr 23
Waxing Gibbous
Apr 25
Full
May 2
Last Quarter
May 9
New
May 18
First Quarter

Hourly Weather History & Observations

Time (EDT) Temp. Windchill Dew Point Humidity Pressure Visibility Wind Dir Wind Speed Gust Speed Precip Events Conditions
12:15 AM 49.5 °F - 37.4 °F 63% 30.13 in 10.0 mi ESE 5.8 mph - N/A   Clear
12:35 AM 50.9 °F - 36.9 °F 59% 30.13 in 10.0 mi SE 6.9 mph - N/A   Clear
12:55 AM 51.4 °F - 36.7 °F 57% 30.12 in 10.0 mi SE 6.9 mph - N/A   Clear
1:15 AM 50.4 °F - 37.0 °F 60% 30.13 in 10.0 mi SE 6.9 mph - N/A   Clear
1:35 AM 49.6 °F - 37.4 °F 63% 30.12 in 10.0 mi SE 6.9 mph - N/A   Clear
1:55 AM 49.1 °F - 37.4 °F 64% 30.12 in 10.0 mi SE 6.9 mph - N/A   Clear
2:15 AM 48.9 °F - 37.4 °F 64% 30.11 in 10.0 mi SE 6.9 mph - N/A   Clear
2:35 AM 49.6 °F - 36.9 °F 61% 30.11 in 10.0 mi SSE 8.1 mph - N/A   Clear
2:55 AM 50.0 °F - 36.7 °F 60% 30.10 in 10.0 mi SSE 5.8 mph - N/A   Clear
3:15 AM 49.5 °F - 36.7 °F 61% 30.10 in 10.0 mi South 4.6 mph - N/A   Clear
3:35 AM 48.4 °F - 37.2 °F 65% 30.10 in 10.0 mi South 3.5 mph - N/A   Clear
3:55 AM 47.5 °F - 37.6 °F 69% 30.09 in 10.0 mi South 4.6 mph - N/A   Clear
4:15 AM 48.0 °F - 37.4 °F 67% 30.09 in 10.0 mi SSE 5.8 mph - N/A   Clear
4:35 AM 46.9 °F - 37.8 °F 70% 30.08 in 10.0 mi SSE 4.6 mph - N/A   Clear
4:55 AM 46.4 °F 43.5 °F 37.9 °F 72% 30.06 in 10.0 mi SE 5.8 mph - N/A   Scattered Clouds
5:15 AM 47.3 °F - 37.8 °F 69% 30.04 in 10.0 mi SE 6.9 mph - N/A   Scattered Clouds
5:35 AM 47.3 °F - 37.8 °F 69% 30.04 in 10.0 mi SSE 5.8 mph - N/A   Clear
5:55 AM 48.0 °F - 37.9 °F 68% 30.07 in 10.0 mi South 6.9 mph - N/A   Scattered Clouds
6:15 AM 48.9 °F - 39.0 °F 69% 30.07 in 10.0 mi South 6.9 mph - N/A   Overcast
6:35 AM 49.3 °F - 39.2 °F 68% 30.06 in 10.0 mi South 6.9 mph - N/A   Scattered Clouds
6:55 AM 49.1 °F - 39.2 °F 69% 30.05 in 10.0 mi SSE 6.9 mph - N/A   Mostly Cloudy
7:15 AM 49.3 °F - 39.4 °F 69% 30.05 in 10.0 mi South 8.1 mph - N/A   Scattered Clouds
7:35 AM 49.8 °F - 39.6 °F 68% 30.04 in 7.0 mi SSE 6.9 mph - N/A   Scattered Clouds
7:55 AM 50.7 °F - 40.1 °F 67% 30.05 in 10.0 mi SSE 6.9 mph - N/A   Clear
8:15 AM 51.4 °F - 40.6 °F 67% 30.07 in 7.0 mi South 9.2 mph - N/A   Scattered Clouds
8:35 AM 52.0 °F - 40.3 °F 64% 30.07 in 10.0 mi South 9.2 mph - N/A   Mostly Cloudy
8:55 AM 52.9 °F - 40.8 °F 64% 30.05 in 10.0 mi South 8.1 mph - N/A   Overcast
9:15 AM 54.1 °F - 41.5 °F 62% 30.05 in 10.0 mi South 9.2 mph - N/A   Scattered Clouds
9:35 AM 56.1 °F - 42.3 °F 60% 30.05 in 10.0 mi South 10.4 mph - N/A   Clear
9:55 AM 57.7 °F - 42.4 °F 57% 30.04 in 7.0 mi South 10.4 mph - N/A   Clear
10:15 AM 59.2 °F - 43.0 °F 55% 30.04 in 10.0 mi South 11.5 mph - N/A   Clear
10:35 AM 60.6 °F - 43.0 °F 52% 30.04 in 10.0 mi South 12.7 mph - N/A   Clear
10:55 AM 61.7 °F - 43.0 °F 50% 30.04 in 10.0 mi South 13.8 mph - N/A   Clear
11:15 AM 62.6 °F - 43.7 °F 50% 30.04 in 10.0 mi SSW 13.8 mph 19.6 mph N/A   Clear
11:35 AM 63.3 °F - 44.6 °F 50% 30.03 in 10.0 mi SSW 16.1 mph - N/A   Clear
11:55 AM 63.5 °F - 45.5 °F 52% 30.03 in 10.0 mi SSW 19.6 mph - N/A   Scattered Clouds
12:15 PM 63.7 °F - 46.2 °F 53% 30.03 in 7.0 mi SSW 18.4 mph - N/A   Mostly Cloudy
12:35 PM 63.5 °F - 46.8 °F 54% 30.02 in 10.0 mi SSW 13.8 mph 21.9 mph N/A   Overcast
12:55 PM 64.0 °F - 46.8 °F 53% 30.01 in 10.0 mi SSW 16.1 mph - N/A   Mostly Cloudy
1:15 PM 64.0 °F - 46.6 °F 53% 30.00 in 10.0 mi SSW 16.1 mph - N/A   Mostly Cloudy
1:35 PM 63.5 °F - 47.3 °F 56% 29.99 in 10.0 mi SSW 12.7 mph 17.3 mph N/A   Overcast
1:55 PM 64.0 °F - 47.8 °F 56% 29.98 in 10.0 mi SSW 15.0 mph - N/A   Overcast
2:15 PM 64.4 °F - 47.7 °F 55% 29.97 in 10.0 mi SSW 13.8 mph - N/A   Mostly Cloudy
2:35 PM 64.8 °F - 48.4 °F 55% 29.96 in 10.0 mi SSW 13.8 mph 17.3 mph N/A   Scattered Clouds
2:55 PM 65.1 °F - 48.9 °F 56% 29.96 in 7.0 mi SSW 20.7 mph 24.2 mph N/A   Scattered Clouds
3:15 PM 64.8 °F - 48.7 °F 56% 29.95 in 7.0 mi SSW 18.4 mph 23.0 mph N/A   Mostly Cloudy
3:35 PM 63.5 °F - 49.6 °F 61% 29.97 in 7.0 mi SW 21.9 mph 25.3 mph N/A Rain Rain
3:55 PM 58.1 °F - 52.0 °F 80% 29.98 in 3.0 mi SW 18.4 mph 24.2 mph 0.09 in Rain Light Rain
4:15 PM 57.0 °F - 53.2 °F 87% 29.96 in 5.0 mi SW 15.0 mph 24.2 mph 0.01 in Rain Light Rain
4:35 PM 57.6 °F - 53.8 °F 87% 29.94 in 7.0 mi SSW 12.7 mph - 0.02 in Rain Light Rain
4:55 PM 57.6 °F - 53.6 °F 87% 29.94 in 7.0 mi SW 10.4 mph 16.1 mph 0.02 in   Overcast
5:15 PM 57.4 °F - 53.4 °F 87% 29.93 in 7.0 mi SW 9.2 mph - 0.01 in   Overcast
5:35 PM 57.4 °F - 53.8 °F 88% 29.92 in 5.0 mi South 4.6 mph - 0.02 in Rain Light Rain
5:55 PM 57.4 °F - 54.0 °F 88% 29.91 in 5.0 mi SSW 4.6 mph - 0.03 in Rain Light Rain
6:15 PM 57.4 °F - 54.1 °F 89% 29.90 in 7.0 mi South 3.5 mph - N/A Rain Light Rain
6:35 PM 57.2 °F - 54.5 °F 91% 29.90 in 4.0 mi WSW 3.5 mph - 0.02 in Rain Light Rain
6:55 PM 57.0 °F - 54.5 °F 91% 29.89 in 2.0 mi South 3.5 mph - 0.07 in Rain Light Rain
7:15 PM 56.5 °F - 54.5 °F 93% 29.88 in 3.0 mi SSE 4.6 mph - 0.02 in Rain Light Rain
7:35 PM 56.3 °F - 54.5 °F 94% 29.86 in 2.5 mi SSE 5.8 mph - 0.04 in Rain Light Rain
7:55 PM 56.3 °F - 54.5 °F 94% 29.85 in 4.0 mi SSE 5.8 mph - 0.06 in Rain Light Rain
8:15 PM 56.3 °F - 54.5 °F 94% 29.85 in 4.0 mi South 4.6 mph - N/A Rain Light Rain
8:35 PM 56.3 °F - 54.5 °F 94% 29.84 in 4.0 mi SE 6.9 mph - N/A   Overcast
8:55 PM 56.3 °F - 54.7 °F 94% 29.84 in 5.0 mi SE 5.8 mph - 0.01 in   Overcast
9:15 PM 56.3 °F - 54.7 °F 94% 29.84 in 4.0 mi SE 3.5 mph - 0.03 in Rain Rain
9:35 PM 56.3 °F - 54.7 °F 94% 29.83 in 4.0 mi South 9.2 mph - 0.09 in Rain Heavy Rain
9:55 PM 56.5 °F - 54.7 °F 94% 29.82 in 4.0 mi South 6.9 mph - 0.18 in Rain Rain
10:15 PM 56.7 °F - 54.5 °F 92% 29.82 in 5.0 mi SSE 5.8 mph - 0.03 in Rain Rain
10:35 PM 56.5 °F - 54.3 °F 92% 29.81 in 5.0 mi SSE 6.9 mph - 0.05 in Rain Light Rain
10:55 PM 56.3 °F - 54.1 °F 92% 29.81 in 4.0 mi South 5.8 mph - 0.10 in Rain Light Rain
11:15 PM 56.3 °F - 54.0 °F 92% 29.81 in 4.0 mi South 6.9 mph - 0.04 in Rain Rain
11:35 PM 56.5 °F - 53.6 °F 90% 29.82 in 4.0 mi West 10.4 mph - 0.12 in Rain Rain
11:55 PM 55.8 °F - 53.6 °F 92% 29.82 in 4.0 mi WSW 5.8 mph - 0.20 in Rain Rain